User: anonymous   Login
Location: Fremont
(37.5480°N, 121.9880°W)
Time: 15:04:52
(UTC-07:00)
Language:

Cosmos 1844 Rocket - Orbit

View from above orbital plane
View from above orbital plane
View from above satellite
View from above satellite

Ground track
Ground track

The orbit data is extracted from the following two-line orbital elements,

1 17974U 87041B   14304.13439069 -.00000134  00000-0 -42542-4 0  2494
2 17974 071.0063 132.4540 0012226 052.8953 085.4310 14.17123683420666
Epoch (UTC): 31 October 2014 03:13:31
Eccentricity: 0.0012226
inclination: 71.0063°
perigee height: 826 km
apogee height: 844 km
right ascension of ascending node: 132.4540°
argument of perigee: 52.8953°
revolutions per day: 14.17123683
mean anomaly at epoch: 85.4310°
orbit number at epoch: 42066

The dashed part of the orbit path shows where the satellite is in the earth's shadow,  

DLR